Time,TemperatureF,DewpointF,PressureIn,WindDirection,WindDirectionDegrees,WindSpeedMPH,WindSpeedGustMPH,Humidity,HourlyPrecipIn,Conditions,Clouds,dailyrainin,SoftwareType,DateUTC
2013-02-05 00:00:00,38.1,24.2,29.70,WSW,249,1.6,6.9,57,0.00,,,0.00,WeatherDisplay:10.37,2013-02-05 05:00:00,
2013-02-05 00:03:00,38.1,24.2,29.70,WNW,292,0.4,0.0,57,0.00,,,0.00,WeatherDisplay:10.37,2013-02-05 05:03:00,
2013-02-05 00:08:00,38.3,24.4,29.70,West,270,0.4,1.1,57,0.00,,,0.00,WeatherDisplay:10.37,2013-02-05 05:08:00,
2013-02-05 00:13:00,38.3,24.4,29.69,West,270,2.8,4.9,57,0.00,,,0.00,WeatherDisplay:10.37,2013-02-05 05:13:00,
2013-02-05 00:18:00,38.5,24.6,29.69,NNW,338,1.3,7.4,57,0.00,,,0.00,WeatherDisplay:10.37,2013-02-05 05:18:00,
2013-02-05 00:23:00,38.5,24.1,29.69,WSW,248,0.0,0.0,56,0.00,,,0.00,WeatherDisplay:10.37,2013-02-05 05:23:00,
2013-02-05 00:28:00,38.5,24.1,29.68,SSW,202,1.1,2.3,56,0.00,,,0.00,WeatherDisplay:10.37,2013-02-05 05:28:00,
2013-02-05 00:33:00,38.5,24.1,29.68,SW,225,3.4,6.9,56,0.00,,,0.00,WeatherDisplay:10.37,2013-02-05 05:33:00,
2013-02-05 00:38:00,38.8,24.5,29.68,SW,225,2.4,4.6,56,0.00,,,0.00,WeatherDisplay:10.37,2013-02-05 05:38:00,
2013-02-05 00:43:00,38.8,24.5,29.68,WSW,248,2.6,6.7,56,0.00,,,0.00,WeatherDisplay:10.37,2013-02-05 05:43:00,
2013-02-05 00:48:00,38.8,24.5,29.68,SSW,202,4.4,9.2,56,0.00,,,0.00,WeatherDisplay:10.37,2013-02-05 05:48:00,
2013-02-05 00:53:00,38.5,24.1,29.67,SW,225,0.4,5.8,56,0.00,,,0.00,WeatherDisplay:10.37,2013-02-05 05:53:00,
2013-02-05 00:58:00,38.5,24.1,29.67,WSW,248,0.7,4.9,56,0.00,,,0.00,WeatherDisplay:10.37,2013-02-05 05:58:00,
2013-02-05 01:03:00,38.5,24.1,29.67,WSW,248,1.6,6.9,56,0.00,,,0.00,WeatherDisplay:10.37,2013-02-05 06:03:00,
2013-02-05 01:08:00,38.5,24.1,29.67,SW,225,3.9,6.9,56,0.00,,,0.00,WeatherDisplay:10.37,2013-02-05 06:08:00,
2013-02-05 01:13:00,38.5,24.1,29.67,SSE,158,0.0,0.0,56,0.00,,,0.00,WeatherDisplay:10.37,2013-02-05 06:13:00,
2013-02-05 01:18:00,38.7,24.3,29.66,SSW,202,4.3,6.9,56,0.00,,,0.00,WeatherDisplay:10.37,2013-02-05 06:18:00,
2013-02-05 01:23:00,38.5,24.1,29.66,South,180,1.3,3.5,56,0.00,,,0.00,WeatherDisplay:10.37,2013-02-05 06:23:00,
2013-02-05 01:28:00,38.5,23.7,29.66,SSW,202,0.7,8.5,55,0.00,,,0.00,WeatherDisplay:10.37,2013-02-05 06:28:00,
2013-02-05 01:33:00,38.5,23.7,29.66,SSW,202,2.0,4.6,55,0.00,,,0.00,WeatherDisplay:10.37,2013-02-05 06:33:00,
2013-02-05 01:38:00,38.5,23.7,29.66,South,180,0.0,0.0,55,0.00,,,0.00,WeatherDisplay:10.37,2013-02-05 06:38:00,
2013-02-05 01:43:00,38.5,23.7,29.66,SSW,202,0.0,0.0,55,0.00,,,0.00,WeatherDisplay:10.37,2013-02-05 06:43:00,
2013-02-05 01:48:00,38.5,23.7,29.66,SW,225,2.5,5.1,55,0.00,,,0.00,WeatherDisplay:10.37,2013-02-05 06:48:00,
2013-02-05 01:53:00,38.3,23.5,29.66,SSW,202,2.4,5.8,55,0.00,,,0.00,WeatherDisplay:10.37,2013-02-05 06:53:00,
2013-02-05 01:58:00,38.3,23.5,29.66,NW,315,0.5,2.3,55,0.00,,,0.00,WeatherDisplay:10.37,2013-02-05 06:58:00,
2013-02-05 02:03:00,38.1,23.4,29.66,SSW,202,0.8,3.5,55,0.00,,,0.00,WeatherDisplay:10.37,2013-02-05 07:03:00,
2013-02-05 02:08:00,38.1,23.4,29.66,WSW,248,2.9,4.6,55,0.00,,,0.00,WeatherDisplay:10.37,2013-02-05 07:08:00,
2013-02-05 02:13:00,38.1,23.4,29.65,WSW,248,0.0,0.0,55,0.00,,,0.00,WeatherDisplay:10.37,2013-02-05 07:13:00,
2013-02-05 02:18:00,37.9,23.2,29.65,SSW,202,0.0,0.0,55,0.00,,,0.00,WeatherDisplay:10.37,2013-02-05 07:18:00,
2013-02-05 02:23:00,37.9,23.2,29.65,WSW,248,0.0,0.0,55,0.00,,,0.00,WeatherDisplay:10.37,2013-02-05 07:23:00,
2013-02-05 02:28:00,37.9,23.2,29.65,SW,225,0.0,0.0,55,0.00,,,0.00,WeatherDisplay:10.37,2013-02-05 07:28:00,
2013-02-05 02:33:00,37.8,23.0,29.65,SSW,202,3.3,10.4,55,0.00,,,0.00,WeatherDisplay:10.37,2013-02-05 07:33:00,
2013-02-05 02:38:00,37.8,23.0,29.65,West,270,0.0,0.0,55,0.00,,,0.00,WeatherDisplay:10.37,2013-02-05 07:38:00,
2013-02-05 02:43:00,37.6,23.3,29.65,SSW,202,2.3,6.7,56,0.00,,,0.00,WeatherDisplay:10.37,2013-02-05 07:43:00,
2013-02-05 02:48:00,37.8,23.5,29.65,North,0,1.0,6.9,56,0.00,,,0.00,WeatherDisplay:10.37,2013-02-05 07:48:00,
2013-02-05 02:53:00,37.8,23.5,29.64,West,270,0.0,0.0,56,0.00,,,0.00,WeatherDisplay:10.37,2013-02-05 07:53:00,
2013-02-05 02:58:00,37.9,23.2,29.64,SSW,202,0.0,0.0,55,0.00,,,0.00,WeatherDisplay:10.37,2013-02-05 07:58:00,
2013-02-05 03:03:00,37.9,23.2,29.64,SW,225,0.0,0.0,55,0.00,,,0.00,WeatherDisplay:10.37,2013-02-05 08:03:00,
2013-02-05 03:08:00,37.9,23.2,29.64,SSW,202,0.0,2.3,55,0.00,,,0.00,WeatherDisplay:10.37,2013-02-05 08:08:00,
2013-02-05 03:13:00,37.9,23.6,29.64,SSW,202,0.0,0.0,56,0.00,,,0.00,WeatherDisplay:10.37,2013-02-05 08:13:00,
2013-02-05 03:18:00,37.9,23.2,29.64,WSW,248,0.0,0.0,55,0.00,,,0.00,WeatherDisplay:10.37,2013-02-05 08:18:00,
2013-02-05 03:23:00,37.9,23.2,29.64,WSW,248,0.0,0.0,55,0.00,,,0.00,WeatherDisplay:10.37,2013-02-05 08:23:00,
2013-02-05 03:28:00,37.9,23.2,29.64,SSW,202,1.0,4.6,55,0.00,,,0.00,WeatherDisplay:10.37,2013-02-05 08:28:00,
2013-02-05 03:33:00,38.1,23.4,29.64,South,180,3.1,6.9,55,0.00,,,0.00,WeatherDisplay:10.37,2013-02-05 08:33:00,
2013-02-05 03:38:00,37.9,23.2,29.64,South,180,0.0,0.0,55,0.00,,,0.00,WeatherDisplay:10.37,2013-02-05 08:38:00,
2013-02-05 03:43:00,37.9,23.2,29.64,South,180,0.0,0.0,55,0.00,,,0.00,WeatherDisplay:10.37,2013-02-05 08:43:00,
2013-02-05 03:48:00,37.8,23.0,29.63,NNW,338,0.0,0.0,55,0.00,,,0.00,WeatherDisplay:10.37,2013-02-05 08:48:00,
2013-02-05 03:53:00,37.8,23.5,29.63,NW,315,0.0,0.0,56,0.00,,,0.00,WeatherDisplay:10.37,2013-02-05 08:53:00,
2013-02-05 03:58:00,37.6,22.9,29.63,NW,315,0.0,0.0,55,0.00,,,0.00,WeatherDisplay:10.37,2013-02-05 08:58:00,
2013-02-05 04:03:00,37.6,22.9,29.63,NW,315,0.0,0.0,55,0.00,,,0.00,WeatherDisplay:10.37,2013-02-05 09:03:00,
2013-02-05 04:08:00,37.6,22.9,29.63,NW,315,0.0,0.0,55,0.00,,,0.00,WeatherDisplay:10.37,2013-02-05 09:08:00,
2013-02-05 04:13:00,37.6,22.9,29.63,NW,315,0.0,0.0,55,0.00,,,0.00,WeatherDisplay:10.37,2013-02-05 09:13:00,
2013-02-05 04:18:00,37.6,22.9,29.63,NW,315,0.0,0.0,55,0.00,,,0.00,WeatherDisplay:10.37,2013-02-05 09:18:00,
2013-02-05 04:23:00,37.4,22.7,29.63,NW,315,0.0,0.0,55,0.00,,,0.00,WeatherDisplay:10.37,2013-02-05 09:23:00,
2013-02-05 04:28:00,37.2,22.9,29.63,NW,315,0.0,0.0,56,0.00,,,0.00,WeatherDisplay:10.37,2013-02-05 09:28:00,
2013-02-05 04:33:00,37.2,22.9,29.63,NW,315,0.0,0.0,56,0.00,,,0.00,WeatherDisplay:10.37,2013-02-05 09:33:00,
2013-02-05 04:38:00,37.0,22.8,29.63,NW,315,0.0,0.0,56,0.00,,,0.00,WeatherDisplay:10.37,2013-02-05 09:38:00,
2013-02-05 04:43:00,36.7,22.9,29.64,NW,315,0.0,0.0,57,0.00,,,0.00,WeatherDisplay:10.37,2013-02-05 09:43:00,
2013-02-05 04:48:00,36.7,22.9,29.64,NW,315,0.0,0.0,57,0.00,,,0.00,WeatherDisplay:10.37,2013-02-05 09:48:00,
2013-02-05 04:53:00,36.5,22.7,29.64,NW,315,0.0,0.0,57,0.00,,,0.00,WeatherDisplay:10.37,2013-02-05 09:53:00,
2013-02-05 04:58:00,36.5,22.7,29.64,NW,315,0.0,0.0,57,0.00,,,0.00,WeatherDisplay:10.37,2013-02-05 09:58:00,
2013-02-05 05:03:00,36.3,22.5,29.64,NW,315,0.0,0.0,57,0.00,,,0.00,WeatherDisplay:10.37,2013-02-05 10:03:00,
2013-02-05 05:08:00,36.3,22.5,29.64,NW,315,0.0,0.0,57,0.00,,,0.00,WeatherDisplay:10.37,2013-02-05 10:08:00,
2013-02-05 05:13:00,36.1,22.4,29.64,NW,315,0.0,0.0,57,0.00,,,0.00,WeatherDisplay:10.37,2013-02-05 10:13:00,
2013-02-05 05:18:00,36.1,22.8,29.64,NW,315,0.0,0.0,58,0.00,,,0.00,WeatherDisplay:10.37,2013-02-05 10:18:00,
2013-02-05 05:23:00,36.1,22.8,29.64,NW,315,0.0,0.0,58,0.00,,,0.00,WeatherDisplay:10.37,2013-02-05 10:23:00,
2013-02-05 05:28:00,36.1,22.8,29.64,NW,315,0.0,0.0,58,0.00,,,0.00,WeatherDisplay:10.37,2013-02-05 10:28:00,
2013-02-05 05:33:00,36.3,22.9,29.65,NW,315,0.0,0.0,58,0.00,,,0.00,WeatherDisplay:10.37,2013-02-05 10:33:00,
2013-02-05 05:38:00,36.5,23.1,29.64,NW,315,0.0,0.0,58,0.00,,,0.00,WeatherDisplay:10.37,2013-02-05 10:38:00,
2013-02-05 05:43:00,36.7,23.3,29.64,NW,315,0.0,0.0,58,0.00,,,0.00,WeatherDisplay:10.37,2013-02-05 10:43:00,
2013-02-05 05:48:00,36.7,23.3,29.63,NW,315,0.0,0.0,58,0.00,,,0.00,WeatherDisplay:10.37,2013-02-05 10:48:00,
2013-02-05 05:53:00,36.5,23.1,29.64,NW,315,0.0,0.0,58,0.00,,,0.00,WeatherDisplay:10.37,2013-02-05 10:53:00,
2013-02-05 05:58:00,36.5,23.1,29.64,NW,315,0.0,0.0,58,0.00,,,0.00,WeatherDisplay:10.37,2013-02-05 10:58:00,
2013-02-05 06:03:00,36.3,23.3,29.64,NW,315,0.0,0.0,59,0.00,,,0.00,WeatherDisplay:10.37,2013-02-05 11:03:00,
2013-02-05 06:08:00,36.3,23.3,29.65,NW,315,0.0,0.0,59,0.00,,,0.00,WeatherDisplay:10.37,2013-02-05 11:08:00,
2013-02-05 06:13:00,36.0,23.0,29.65,NW,315,0.0,0.0,59,0.00,,,0.00,WeatherDisplay:10.37,2013-02-05 11:13:00,
2013-02-05 06:18:00,35.8,23.2,29.65,NW,315,0.0,0.0,60,0.00,,,0.00,WeatherDisplay:10.37,2013-02-05 11:18:00,
2013-02-05 06:23:00,35.4,22.9,29.65,NW,315,0.0,0.0,60,0.00,,,0.00,WeatherDisplay:10.37,2013-02-05 11:23:00,
2013-02-05 06:28:00,35.4,22.9,29.65,NW,315,0.0,0.0,60,0.00,,,0.00,WeatherDisplay:10.37,2013-02-05 11:28:00,
2013-02-05 06:33:00,35.6,23.5,29.65,NW,315,0.0,0.0,61,0.00,,,0.00,WeatherDisplay:10.37,2013-02-05 11:33:00,
2013-02-05 06:38:00,35.6,23.1,29.66,NW,315,0.0,0.0,60,0.00,,,0.00,WeatherDisplay:10.37,2013-02-05 11:38:00,
2013-02-05 06:43:00,35.4,22.9,29.66,NW,315,0.0,0.0,60,0.00,,,0.00,WeatherDisplay:10.37,2013-02-05 11:43:00,
2013-02-05 06:48:00,35.4,22.9,29.66,NW,315,0.0,0.0,60,0.00,,,0.00,WeatherDisplay:10.37,2013-02-05 11:48:00,
2013-02-05 06:53:00,35.4,23.3,29.66,NW,315,0.0,0.0,61,0.00,,,0.00,WeatherDisplay:10.37,2013-02-05 11:53:00,
2013-02-05 06:58:00,35.4,23.3,29.65,NNW,338,0.0,0.0,61,0.00,,,0.00,WeatherDisplay:10.37,2013-02-05 11:58:00,
2013-02-05 07:03:00,35.4,23.3,29.66,NNW,338,0.0,0.0,61,0.00,,,0.00,WeatherDisplay:10.37,2013-02-05 12:03:00,
2013-02-05 07:08:00,35.4,23.3,29.66,NNW,338,0.0,0.0,61,0.00,,,0.00,WeatherDisplay:10.37,2013-02-05 12:08:00,
2013-02-05 07:13:00,35.4,23.3,29.67,NW,315,0.0,0.0,61,0.00,,,0.00,WeatherDisplay:10.37,2013-02-05 12:13:00,
2013-02-05 07:18:00,35.4,23.3,29.67,NNW,338,0.0,0.0,61,0.00,,,0.00,WeatherDisplay:10.37,2013-02-05 12:18:00,
2013-02-05 07:23:00,35.4,23.3,29.67,NNW,338,0.0,0.0,61,0.00,,,0.00,WeatherDisplay:10.37,2013-02-05 12:23:00,
2013-02-05 07:28:00,35.8,23.6,29.67,NNW,338,0.0,0.0,61,0.00,,,0.00,WeatherDisplay:10.37,2013-02-05 12:28:00,
2013-02-05 07:33:00,35.8,23.6,29.68,NNW,338,0.0,0.0,61,0.00,,,0.00,WeatherDisplay:10.37,2013-02-05 12:33:00,
2013-02-05 07:38:00,36.1,24.4,29.67,NW,315,0.0,0.0,62,0.00,,,0.00,WeatherDisplay:10.37,2013-02-05 12:38:00,
2013-02-05 07:43:00,36.1,24.4,29.67,NNW,338,0.0,0.0,62,0.00,,,0.00,WeatherDisplay:10.37,2013-02-05 12:43:00,
2013-02-05 07:48:00,36.1,24.4,29.67,NW,315,0.0,0.0,62,0.00,,,0.00,WeatherDisplay:10.37,2013-02-05 12:48:00,
2013-02-05 07:53:00,36.1,24.4,29.68,NW,315,0.0,0.0,62,0.00,,,0.00,WeatherDisplay:10.37,2013-02-05 12:53:00,
2013-02-05 07:58:00,36.1,24.7,29.68,NW,315,0.0,0.0,63,0.00,,,0.00,WeatherDisplay:10.37,2013-02-05 12:58:00,
2013-02-05 08:03:00,36.3,24.9,29.68,NW,315,0.0,0.0,63,0.00,,,0.00,WeatherDisplay:10.37,2013-02-05 13:03:00,
2013-02-05 08:08:00,36.3,24.9,29.68,NNW,338,0.0,0.0,63,0.00,,,0.00,WeatherDisplay:10.37,2013-02-05 13:08:00,
2013-02-05 08:13:00,36.5,25.1,29.68,NW,315,0.0,0.0,63,0.00,,,0.00,WeatherDisplay:10.37,2013-02-05 13:13:00,
2013-02-05 08:18:00,36.7,25.3,29.69,NW,315,0.0,0.0,63,0.00,,,0.00,WeatherDisplay:10.37,2013-02-05 13:18:00,
2013-02-05 08:23:00,36.9,25.4,29.69,NW,315,0.0,0.0,63,0.00,,,0.00,WeatherDisplay:10.37,2013-02-05 13:23:00,
2013-02-05 08:28:00,37.6,26.1,29.68,South,180,0.8,4.6,63,0.00,,,0.00,WeatherDisplay:10.37,2013-02-05 13:28:00,
2013-02-05 08:33:00,38.5,27.0,29.68,SSW,202,0.0,0.0,63,0.00,,,0.00,WeatherDisplay:10.37,2013-02-05 13:33:00,
2013-02-05 08:38:00,39.4,27.4,29.69,SW,225,0.8,1.1,62,0.00,,,0.00,WeatherDisplay:10.37,2013-02-05 13:38:00,
2013-02-05 08:43:00,39.9,27.5,29.68,SSW,202,0.0,0.0,61,0.00,,,0.00,WeatherDisplay:10.37,2013-02-05 13:43:00,
2013-02-05 08:48:00,40.6,28.2,29.69,South,180,0.0,0.0,61,0.00,,,0.00,WeatherDisplay:10.37,2013-02-05 13:48:00,
2013-02-05 08:53:00,41.0,28.2,29.69,South,180,2.4,3.5,60,0.00,,,0.00,WeatherDisplay:10.37,2013-02-05 13:53:00,
2013-02-05 08:58:00,41.7,28.4,29.69,SW,225,0.7,4.6,59,0.00,,,0.00,WeatherDisplay:10.37,2013-02-05 13:58:00,
2013-02-05 09:03:00,42.1,28.8,29.69,SSW,202,0.0,3.5,59,0.00,,,0.00,WeatherDisplay:10.37,2013-02-05 14:03:00,
2013-02-05 09:08:00,42.6,28.9,29.69,SSE,158,0.8,2.3,58,0.00,,,0.00,WeatherDisplay:10.37,2013-02-05 14:08:00,
2013-02-05 09:13:00,43.2,29.8,29.69,WSW,248,5.0,6.9,59,0.00,,,0.00,WeatherDisplay:10.37,2013-02-05 14:13:00,
2013-02-05 09:18:00,43.5,29.7,29.69,SSW,202,1.0,5.8,58,0.00,,,0.00,WeatherDisplay:10.37,2013-02-05 14:18:00,
2013-02-05 09:23:00,44.1,30.2,29.69,SSE,158,0.4,4.5,58,0.00,,,0.00,WeatherDisplay:10.37,2013-02-05 14:23:00,
2013-02-05 09:28:00,44.4,30.6,29.69,SSE,158,0.0,0.0,58,0.00,,,0.00,WeatherDisplay:10.37,2013-02-05 14:28:00,
2013-02-05 09:33:00,45.0,30.6,29.68,SSW,202,1.9,6.9,57,0.00,,,0.00,WeatherDisplay:10.37,2013-02-05 14:33:00,
2013-02-05 09:38:00,45.7,31.3,29.69,South,180,0.9,2.3,57,0.00,,,0.00,WeatherDisplay:10.37,2013-02-05 14:38:00,
2013-02-05 09:43:00,46.2,31.8,29.69,South,180,1.5,5.8,57,0.00,,,0.00,WeatherDisplay:10.37,2013-02-05 14:43:00,
2013-02-05 09:48:00,46.9,32.5,29.70,SW,225,1.7,4.5,57,0.00,,,0.00,WeatherDisplay:10.37,2013-02-05 14:48:00,
2013-02-05 09:53:00,47.8,33.3,29.69,SW,225,0.6,6.5,57,0.00,,,0.00,WeatherDisplay:10.37,2013-02-05 14:53:00,
2013-02-05 09:58:00,48.7,33.7,29.68,SSE,158,0.5,4.6,56,0.00,,,0.00,WeatherDisplay:10.37,2013-02-05 14:58:00,
2013-02-05 10:03:00,49.6,34.6,29.69,South,180,0.0,0.0,56,0.00,,,0.00,WeatherDisplay:10.37,2013-02-05 15:03:00,
2013-02-05 10:08:00,49.8,33.8,29.69,SSE,158,0.0,0.0,54,0.00,,,0.00,WeatherDisplay:10.37,2013-02-05 15:08:00,
2013-02-05 10:13:00,49.6,33.7,29.69,South,180,0.0,0.0,54,0.00,,,0.00,WeatherDisplay:10.37,2013-02-05 15:13:00,
2013-02-05 10:18:00,49.8,33.8,29.69,South,180,0.0,1.1,54,0.00,,,0.00,WeatherDisplay:10.37,2013-02-05 15:18:00,
2013-02-05 10:23:00,50.5,34.5,29.69,SSE,158,0.0,0.0,54,0.00,,,0.00,WeatherDisplay:10.37,2013-02-05 15:23:00,
2013-02-05 10:28:00,51.3,35.2,29.69,SSE,158,0.8,0.0,54,0.00,,,0.00,WeatherDisplay:10.37,2013-02-05 15:28:00,
2013-02-05 10:33:00,51.6,35.0,29.70,SSE,158,0.0,0.0,53,0.00,,,0.00,WeatherDisplay:10.37,2013-02-05 15:33:00,
2013-02-05 10:38:00,51.6,35.0,29.69,SSE,158,0.0,0.0,53,0.00,,,0.00,WeatherDisplay:10.37,2013-02-05 15:38:00,
2013-02-05 10:43:00,52.0,35.4,29.69,SSE,158,1.2,0.0,53,0.00,,,0.00,WeatherDisplay:10.37,2013-02-05 15:43:00,
2013-02-05 10:48:00,52.5,35.4,29.69,SE,135,1.2,2.3,52,0.00,,,0.00,WeatherDisplay:10.37,2013-02-05 15:48:00,
2013-02-05 10:53:00,52.9,35.7,29.69,SSE,158,0.0,3.5,52,0.00,,,0.00,WeatherDisplay:10.37,2013-02-05 15:53:00,
2013-02-05 10:58:00,52.9,35.7,29.70,SE,135,0.0,0.0,52,0.00,,,0.00,WeatherDisplay:10.37,2013-02-05 15:58:00,
2013-02-05 11:03:00,52.9,35.7,29.70,SSE,158,0.0,4.6,52,0.00,,,0.00,WeatherDisplay:10.37,2013-02-05 16:03:00,
2013-02-05 11:08:00,52.7,35.1,29.70,SE,135,0.0,0.0,51,0.00,,,0.00,WeatherDisplay:10.37,2013-02-05 16:08:00,
2013-02-05 11:13:00,52.7,35.1,29.70,ESE,112,0.7,1.1,51,0.00,,,0.00,WeatherDisplay:10.37,2013-02-05 16:13:00,
2013-02-05 11:18:00,52.9,35.2,29.70,SSE,158,0.8,5.8,51,0.00,,,0.00,WeatherDisplay:10.37,2013-02-05 16:18:00,
2013-02-05 11:23:00,53.2,35.1,29.70,SSE,158,1.1,3.5,50,0.00,,,0.00,WeatherDisplay:10.37,2013-02-05 16:23:00,
2013-02-05 11:28:00,54.1,35.4,29.70,ENE,68,1.3,4.6,49,0.00,,,0.00,WeatherDisplay:10.37,2013-02-05 16:28:00,
2013-02-05 11:33:00,55.2,36.4,29.70,SSE,158,0.0,2.3,49,0.00,,,0.00,WeatherDisplay:10.37,2013-02-05 16:33:00,
2013-02-05 11:39:00,55.6,36.2,29.70,ESE,112,1.2,2.3,48,0.00,,,0.00,WeatherDisplay:10.37,2013-02-05 16:39:00,
2013-02-05 11:44:00,55.9,36.0,29.70,SSE,158,0.0,0.0,47,0.00,,,0.00,WeatherDisplay:10.37,2013-02-05 16:44:00,
2013-02-05 11:49:00,56.1,36.1,29.70,ESE,112,1.1,2.3,47,0.00,,,0.00,WeatherDisplay:10.37,2013-02-05 16:49:00,
2013-02-05 11:54:00,56.8,36.8,29.70,ESE,112,0.0,0.0,47,0.00,,,0.00,WeatherDisplay:10.37,2013-02-05 16:54:00,
2013-02-05 11:59:00,57.7,37.6,29.69,SE,135,0.0,0.0,47,0.00,,,0.00,WeatherDisplay:10.37,2013-02-05 16:59:00,
2013-02-05 12:04:00,58.3,37.6,29.70,ENE,69,0.7,3.5,46,0.00,,,0.00,WeatherDisplay:10.37,2013-02-05 17:04:00,
2013-02-05 12:09:00,58.8,38.1,29.70,ENE,68,0.4,2.3,46,0.00,,,0.00,WeatherDisplay:10.37,2013-02-05 17:09:00,
2013-02-05 12:14:00,59.2,38.4,29.70,ESE,112,2.0,3.5,46,0.00,,,0.00,WeatherDisplay:10.37,2013-02-05 17:14:00,
2013-02-05 12:19:00,59.9,39.1,29.69,ENE,68,0.9,2.3,46,0.00,,,0.00,WeatherDisplay:10.37,2013-02-05 17:19:00,
2013-02-05 12:24:00,60.4,39.0,29.69,ESE,112,1.8,4.6,45,0.00,,,0.00,WeatherDisplay:10.37,2013-02-05 17:24:00,
2013-02-05 12:29:00,61.0,39.5,29.69,ESE,112,0.0,0.0,45,0.00,,,0.00,WeatherDisplay:10.37,2013-02-05 17:29:00,
2013-02-05 12:34:00,61.5,39.4,29.68,SE,135,0.6,2.3,44,0.00,,,0.00,WeatherDisplay:10.37,2013-02-05 17:34:00,
2013-02-05 12:39:00,62.2,40.0,29.68,SSE,158,1.9,4.6,44,0.00,,,0.00,WeatherDisplay:10.37,2013-02-05 17:39:00,
2013-02-05 12:44:00,62.2,40.0,29.68,SE,135,1.5,4.6,44,0.00,,,0.00,WeatherDisplay:10.37,2013-02-05 17:44:00,
2013-02-05 12:49:00,61.9,39.1,29.68,SSE,158,0.7,1.1,43,0.00,,,0.00,WeatherDisplay:10.37,2013-02-05 17:49:00,
2013-02-05 12:54:00,61.9,39.7,29.67,SSE,158,0.8,3.5,44,0.00,,,0.00,WeatherDisplay:10.37,2013-02-05 17:54:00,
2013-02-05 12:59:00,62.4,39.6,29.67,South,180,6.2,8.7,43,0.00,,,0.00,WeatherDisplay:10.37,2013-02-05 17:59:00,
2013-02-05 13:04:00,62.4,39.0,29.67,SSE,158,3.6,6.9,42,0.00,,,0.00,WeatherDisplay:10.37,2013-02-05 18:04:00,
2013-02-05 13:09:00,62.8,39.3,29.66,SE,135,2.2,5.8,42,0.00,,,0.00,WeatherDisplay:10.37,2013-02-05 18:09:00,
2013-02-05 13:14:00,63.3,39.2,29.66,SSW,202,7.8,15.0,41,0.00,,,0.00,WeatherDisplay:10.37,2013-02-05 18:14:00,
2013-02-05 13:19:00,63.9,38.4,29.66,SE,135,5.7,9.2,39,0.00,,,0.00,WeatherDisplay:10.37,2013-02-05 18:19:00,
2013-02-05 13:24:00,63.7,37.6,29.65,South,180,2.7,5.8,38,0.00,,,0.00,WeatherDisplay:10.37,2013-02-05 18:24:00,
2013-02-05 13:29:00,63.7,37.6,29.65,NE,45,1.9,3.5,38,0.00,,,0.00,WeatherDisplay:10.37,2013-02-05 18:29:00,
2013-02-05 13:34:00,64.0,37.2,29.65,SW,225,2.0,6.9,37,0.00,,,0.00,WeatherDisplay:10.37,2013-02-05 18:34:00,
2013-02-05 13:39:00,64.2,37.4,29.65,South,180,5.0,8.1,37,0.00,,,0.00,WeatherDisplay:10.37,2013-02-05 18:39:00,
2013-02-05 13:44:00,64.6,37.7,29.65,SE,135,6.1,10.4,37,0.00,,,0.00,WeatherDisplay:10.37,2013-02-05 18:44:00,
2013-02-05 13:49:00,64.6,36.3,29.64,SSW,202,3.7,6.9,35,0.00,,,0.00,WeatherDisplay:10.37,2013-02-05 18:49:00,
2013-02-05 13:54:00,64.6,35.6,29.64,NW,315,0.1,2.0,34,0.00,,,0.00,WeatherDisplay:10.37,2013-02-05 18:54:00,
2013-02-05 13:59:00,64.8,35.0,29.65,NE,45,1.2,3.5,33,0.00,,,0.00,WeatherDisplay:10.37,2013-02-05 18:59:00,
2013-02-05 14:04:00,64.9,34.3,29.64,SSW,202,4.1,9.2,32,0.00,,,0.00,WeatherDisplay:10.37,2013-02-05 19:04:00,
2013-02-05 14:09:00,64.9,33.6,29.64,SE,135,0.6,5.4,31,0.00,,,0.00,WeatherDisplay:10.37,2013-02-05 19:09:00,
2013-02-05 14:14:00,65.1,34.5,29.64,SSW,202,1.9,3.6,32,0.00,,,0.00,WeatherDisplay:10.37,2013-02-05 19:14:00,
2013-02-05 14:19:00,65.5,34.8,29.65,WSW,248,3.6,6.9,32,0.00,,,0.00,WeatherDisplay:10.37,2013-02-05 19:19:00,
2013-02-05 14:24:00,66.0,34.5,29.65,North,0,3.7,5.8,31,0.00,,,0.00,WeatherDisplay:10.37,2013-02-05 19:24:00,
2013-02-05 14:29:00,65.5,33.2,29.65,SE,135,2.7,5.8,30,0.00,,,0.00,WeatherDisplay:10.37,2013-02-05 19:29:00,
2013-02-05 14:34:00,65.1,32.0,29.64,ENE,68,3.7,9.2,29,0.00,,,0.00,WeatherDisplay:10.37,2013-02-05 19:34:00,
2013-02-05 14:39:00,64.6,31.6,29.64,SE,135,0.0,5.8,29,0.00,,,0.00,WeatherDisplay:10.37,2013-02-05 19:39:00,
2013-02-05 14:44:00,64.9,33.6,29.64,South,180,7.4,12.7,31,0.00,,,0.00,WeatherDisplay:10.37,2013-02-05 19:44:00,
2013-02-05 14:49:00,65.8,34.3,29.65,SSW,202,6.8,6.9,31,0.00,,,0.00,WeatherDisplay:10.37,2013-02-05 19:49:00,
2013-02-05 14:54:00,65.3,31.3,29.65,SSE,158,1.6,5.8,28,0.00,,,0.00,WeatherDisplay:10.37,2013-02-05 19:54:00,
2013-02-05 14:59:00,64.9,31.9,29.65,SSE,158,2.0,8.1,29,0.00,,,0.00,WeatherDisplay:10.37,2013-02-05 19:59:00,
2013-02-05 15:04:00,64.8,31.7,29.65,South,180,4.2,6.9,29,0.00,,,0.00,WeatherDisplay:10.37,2013-02-05 20:04:00,
2013-02-05 15:09:00,64.8,31.7,29.65,East,90,7.8,13.8,29,0.00,,,0.00,WeatherDisplay:10.37,2013-02-05 20:09:00,
2013-02-05 15:14:00,64.2,31.3,29.65,ENE,68,0.6,5.4,29,0.00,,,0.00,WeatherDisplay:10.37,2013-02-05 20:14:00,
2013-02-05 15:19:00,64.0,32.0,29.65,WSW,248,1.9,8.0,30,0.00,,,0.00,WeatherDisplay:10.37,2013-02-05 20:19:00,
2013-02-05 15:24:00,64.2,31.3,29.65,South,180,3.1,8.1,29,0.00,,,0.00,WeatherDisplay:10.37,2013-02-05 20:24:00,
2013-02-05 15:29:00,64.2,31.3,29.65,SSE,158,1.0,5.8,29,0.00,,,0.00,WeatherDisplay:10.37,2013-02-05 20:29:00,
2013-02-05 15:34:00,64.2,31.3,29.65,ESE,112,3.0,4.6,29,0.00,,,0.00,WeatherDisplay:10.37,2013-02-05 20:34:00,
2013-02-05 15:39:00,64.2,30.4,29.65,South,180,6.7,9.2,28,0.00,,,0.00,WeatherDisplay:10.37,2013-02-05 20:39:00,
2013-02-05 15:44:00,64.0,31.1,29.66,NW,315,0.8,2.3,29,0.00,,,0.00,WeatherDisplay:10.37,2013-02-05 20:44:00,
2013-02-05 15:49:00,63.7,30.8,29.65,WSW,248,0.7,4.5,29,0.00,,,0.00,WeatherDisplay:10.37,2013-02-05 20:49:00,
2013-02-05 15:54:00,64.0,31.1,29.65,South,180,0.9,3.5,29,0.00,,,0.00,WeatherDisplay:10.37,2013-02-05 20:54:00,
2013-02-05 15:59:00,64.0,30.2,29.65,SSW,202,0.5,5.8,28,0.00,,,0.00,WeatherDisplay:10.37,2013-02-05 20:59:00,
2013-02-05 16:04:00,63.3,30.5,29.65,NNE,22,0.1,1.1,29,0.00,,,0.00,WeatherDisplay:10.37,2013-02-05 21:04:00,
2013-02-05 16:09:00,63.0,30.2,29.66,SE,135,2.3,3.5,29,0.00,,,0.00,WeatherDisplay:10.37,2013-02-05 21:09:00,
2013-02-05 16:14:00,62.6,29.9,29.66,NE,45,3.6,5.8,29,0.00,,,0.00,WeatherDisplay:10.37,2013-02-05 21:14:00,
2013-02-05 16:19:00,62.2,29.6,29.66,ESE,112,0.2,0.0,29,0.00,,,0.00,WeatherDisplay:10.37,2013-02-05 21:19:00,
2013-02-05 16:24:00,61.9,29.2,29.66,South,180,2.0,6.9,29,0.00,,,0.00,WeatherDisplay:10.37,2013-02-05 21:24:00,
2013-02-05 16:29:00,61.5,28.9,29.66,East,90,4.8,6.9,29,0.00,,,0.00,WeatherDisplay:10.37,2013-02-05 21:29:00,
2013-02-05 16:34:00,61.2,28.6,29.66,ENE,68,6.6,8.1,29,0.00,,,0.00,WeatherDisplay:10.37,2013-02-05 21:34:00,
2013-02-05 16:39:00,60.6,29.0,29.66,SE,135,1.7,3.8,30,0.00,,,0.00,WeatherDisplay:10.37,2013-02-05 21:39:00,
2013-02-05 16:44:00,60.4,28.8,29.66,ESE,112,3.9,7.6,30,0.00,,,0.00,WeatherDisplay:10.37,2013-02-05 21:44:00,
2013-02-05 16:49:00,60.1,28.5,29.67,North,0,0.9,5.8,30,0.00,,,0.00,WeatherDisplay:10.37,2013-02-05 21:49:00,
2013-02-05 16:54:00,59.5,28.0,29.67,SSW,202,4.0,5.8,30,0.00,,,0.00,WeatherDisplay:10.37,2013-02-05 21:54:00,
2013-02-05 16:59:00,59.2,28.5,29.67,SE,135,0.4,1.1,31,0.00,,,0.00,WeatherDisplay:10.37,2013-02-05 21:59:00,
2013-02-05 17:04:00,58.6,28.1,29.67,ESE,112,0.0,0.0,31,0.00,,,0.00,WeatherDisplay:10.37,2013-02-05 22:04:00,
2013-02-05 17:09:00,58.5,27.9,29.67,SE,135,1.1,2.5,31,0.00,,,0.00,WeatherDisplay:10.37,2013-02-05 22:09:00,
2013-02-05 17:14:00,58.3,28.5,29.67,ESE,112,0.0,0.0,32,0.00,,,0.00,WeatherDisplay:10.37,2013-02-05 22:14:00,
2013-02-05 17:19:00,57.9,28.2,29.67,NE,45,0.0,0.0,32,0.00,,,0.00,WeatherDisplay:10.37,2013-02-05 22:19:00,
2013-02-05 17:24:00,57.7,28.0,29.67,NE,45,0.0,0.0,32,0.00,,,0.00,WeatherDisplay:10.37,2013-02-05 22:24:00,
2013-02-05 17:29:00,57.0,28.2,29.68,NE,45,0.0,0.0,33,0.00,,,0.00,WeatherDisplay:10.37,2013-02-05 22:29:00,
2013-02-05 17:34:00,56.5,27.7,29.68,NNE,22,0.0,0.0,33,0.00,,,0.00,WeatherDisplay:10.37,2013-02-05 22:34:00,
2013-02-05 17:39:00,55.9,28.7,29.68,ENE,68,0.0,0.0,35,0.00,,,0.00,WeatherDisplay:10.37,2013-02-05 22:39:00,
2013-02-05 17:44:00,55.6,28.3,29.68,ENE,68,0.0,0.0,35,0.00,,,0.00,WeatherDisplay:10.37,2013-02-05 22:44:00,
2013-02-05 17:49:00,54.9,28.4,29.67,ENE,68,0.0,0.0,36,0.00,,,0.00,WeatherDisplay:10.37,2013-02-05 22:49:00,
2013-02-05 17:54:00,54.3,27.9,29.67,ENE,68,0.0,0.0,36,0.00,,,0.00,WeatherDisplay:10.37,2013-02-05 22:54:00,
2013-02-05 17:59:00,53.4,27.8,29.68,ENE,68,0.0,0.0,37,0.00,,,0.00,WeatherDisplay:10.37,2013-02-05 22:59:00,
2013-02-05 18:04:00,53.1,28.1,29.68,ENE,68,0.0,0.0,38,0.00,,,0.00,WeatherDisplay:10.37,2013-02-05 23:04:00,
2013-02-05 18:09:00,52.3,27.5,29.68,ENE,68,0.0,0.0,38,0.00,,,0.00,WeatherDisplay:10.37,2013-02-05 23:09:00,
2013-02-05 18:14:00,52.0,27.1,29.68,NE,45,0.0,0.0,38,0.00,,,0.00,WeatherDisplay:10.37,2013-02-05 23:14:00,
2013-02-05 18:19:00,51.4,26.6,29.68,NE,45,0.0,0.0,38,0.00,,,0.00,WeatherDisplay:10.37,2013-02-05 23:19:00,
2013-02-05 18:24:00,50.9,26.2,29.68,NE,45,0.0,0.0,38,0.00,,,0.00,WeatherDisplay:10.37,2013-02-05 23:24:00,
2013-02-05 18:29:00,50.4,26.3,29.68,NE,45,0.0,0.0,39,0.00,,,0.00,WeatherDisplay:10.37,2013-02-05 23:29:00,
2013-02-05 18:34:00,49.8,25.8,29.69,NE,45,0.0,0.0,39,0.00,,,0.00,WeatherDisplay:10.37,2013-02-05 23:34:00,
2013-02-05 18:39:00,49.6,25.7,29.69,NE,45,0.0,0.0,39,0.00,,,0.00,WeatherDisplay:10.37,2013-02-05 23:39:00,
2013-02-05 18:44:00,49.6,25.7,29.70,NNE,22,0.0,0.0,39,0.00,,,0.00,WeatherDisplay:10.37,2013-02-05 23:44:00,
2013-02-05 18:49:00,49.5,26.1,29.70,NNE,22,0.0,0.0,40,0.00,,,0.00,WeatherDisplay:10.37,2013-02-05 23:49:00,
2013-02-05 18:54:00,49.5,25.5,29.70,NNE,22,0.0,0.0,39,0.00,,,0.00,WeatherDisplay:10.37,2013-02-05 23:54:00,
2013-02-05 18:59:00,49.6,25.7,29.70,NNE,22,0.0,0.0,39,0.00,,,0.00,WeatherDisplay:10.37,2013-02-05 23:59:00,
2013-02-05 19:04:00,49.3,26.0,29.70,NNE,22,0.0,0.0,40,0.00,,,0.00,WeatherDisplay:10.37,2013-02-06 00:04:00,
2013-02-05 19:09:00,49.3,26.0,29.70,NNE,22,0.0,0.0,40,0.00,,,0.00,WeatherDisplay:10.37,2013-02-06 00:09:00,
2013-02-05 19:14:00,48.9,25.6,29.70,NNE,22,0.0,0.0,40,0.00,,,0.00,WeatherDisplay:10.37,2013-02-06 00:14:00,
2013-02-05 19:20:00,48.7,25.5,29.70,NNE,22,0.0,0.0,40,0.00,,,0.00,WeatherDisplay:10.37,2013-02-06 00:20:00,
2013-02-05 19:25:00,48.6,25.9,29.70,NNE,22,0.0,0.0,41,0.00,,,0.00,WeatherDisplay:10.37,2013-02-06 00:25:00,
2013-02-05 19:30:00,48.4,25.7,29.70,NNE,22,0.0,1.0,41,0.00,,,0.00,WeatherDisplay:10.37,2013-02-06 00:30:00,
2013-02-05 19:35:00,48.0,25.4,29.71,NNE,22,0.0,0.0,41,0.00,,,0.00,WeatherDisplay:10.37,2013-02-06 00:35:00,
2013-02-05 19:40:00,48.0,26.0,29.71,NNE,22,0.0,0.0,42,0.00,,,0.00,WeatherDisplay:10.37,2013-02-06 00:40:00,
2013-02-05 19:44:00,47.8,25.8,29.71,North,9,0.0,0.0,42,0.00,,,0.00,WeatherDisplay:10.37,2013-02-06 00:44:00,
2013-02-05 19:50:00,47.7,25.7,29.71,NNW,339,0.0,5.0,42,0.00,,,0.00,WeatherDisplay:10.37,2013-02-06 00:50:00,
2013-02-05 19:55:00,47.8,25.8,29.72,West,263,0.0,3.0,42,0.00,,,0.00,WeatherDisplay:10.37,2013-02-06 00:55:00,
2013-02-05 19:59:00,47.8,25.8,29.72,WSW,248,1.0,6.0,42,0.00,,,0.00,WeatherDisplay:10.37,2013-02-06 00:59:00,
2013-02-05 20:04:00,48.0,26.0,29.72,WSW,251,0.0,3.0,42,0.00,,,0.00,WeatherDisplay:10.37,2013-02-06 01:04:00,
2013-02-05 20:10:00,48.0,26.0,29.72,SW,225,0.2,1.1,42,0.00,,,0.00,WeatherDisplay:10.37,2013-02-06 01:10:00,
2013-02-05 20:15:00,48.2,26.2,29.72,SSW,202,5.0,9.2,42,0.00,,,0.00,WeatherDisplay:10.37,2013-02-06 01:15:00,
2013-02-05 20:20:00,48.4,26.3,29.72,South,180,2.8,5.8,42,0.00,,,0.00,WeatherDisplay:10.37,2013-02-06 01:20:00,
2013-02-05 20:25:00,48.6,26.5,29.72,SSW,202,1.7,4.6,42,0.00,,,0.00,WeatherDisplay:10.37,2013-02-06 01:25:00,
2013-02-05 20:30:00,48.7,26.6,29.72,WSW,238,2.0,8.0,42,0.00,,,0.00,WeatherDisplay:10.37,2013-02-06 01:30:00,
2013-02-05 20:35:00,48.7,26.6,29.72,WNW,292,1.8,4.6,42,0.00,,,0.00,WeatherDisplay:10.37,2013-02-06 01:35:00,
2013-02-05 20:40:00,48.9,27.4,29.72,NW,315,0.0,2.3,43,0.00,,,0.00,WeatherDisplay:10.37,2013-02-06 01:40:00,
2013-02-05 20:45:00,48.9,27.9,29.72,WSW,248,1.7,6.7,44,0.00,,,0.00,WeatherDisplay:10.37,2013-02-06 01:45:00,
2013-02-05 20:50:00,49.1,28.1,29.72,SSW,202,1.7,4.6,44,0.00,,,0.00,WeatherDisplay:10.37,2013-02-06 01:50:00,
2013-02-05 20:55:00,48.9,28.5,29.72,West,270,0.5,4.6,45,0.00,,,0.00,WeatherDisplay:10.37,2013-02-06 01:55:00,
2013-02-05 21:00:00,48.9,28.5,29.72,WSW,248,0.0,0.0,45,0.00,,,0.00,WeatherDisplay:10.37,2013-02-06 02:00:00,
2013-02-05 21:05:00,48.7,28.3,29.72,WSW,248,0.0,0.0,45,0.00,,,0.00,WeatherDisplay:10.37,2013-02-06 02:05:00,
2013-02-05 21:10:00,48.7,28.9,29.72,WSW,248,2.2,5.8,46,0.00,,,0.00,WeatherDisplay:10.37,2013-02-06 02:10:00,
2013-02-05 21:15:00,48.7,28.9,29.73,WSW,248,0.0,0.0,46,0.00,,,0.00,WeatherDisplay:10.37,2013-02-06 02:15:00,
2013-02-05 21:20:00,48.6,29.2,29.73,WSW,248,0.0,0.0,47,0.00,,,0.00,WeatherDisplay:10.37,2013-02-06 02:20:00,
2013-02-05 21:25:00,48.0,28.2,29.73,WSW,248,0.0,0.0,46,0.00,,,0.00,WeatherDisplay:10.37,2013-02-06 02:25:00,
2013-02-05 21:30:00,47.7,28.4,29.73,WSW,248,0.0,0.0,47,0.00,,,0.00,WeatherDisplay:10.37,2013-02-06 02:30:00,
2013-02-05 21:35:00,47.1,27.9,29.74,WSW,248,0.0,0.0,47,0.00,,,0.00,WeatherDisplay:10.37,2013-02-06 02:35:00,
2013-02-05 21:40:00,46.8,27.6,29.74,WSW,248,0.0,0.0,47,0.00,,,0.00,WeatherDisplay:10.37,2013-02-06 02:40:00,
2013-02-05 21:45:00,46.2,27.6,29.73,WSW,248,0.0,0.0,48,0.00,,,0.00,WeatherDisplay:10.37,2013-02-06 02:45:00,
2013-02-05 21:50:00,46.0,27.9,29.74,WSW,248,0.0,0.0,49,0.00,,,0.00,WeatherDisplay:10.37,2013-02-06 02:50:00,
2013-02-05 21:55:00,45.7,28.1,29.74,WSW,248,0.0,0.0,50,0.00,,,0.00,WeatherDisplay:10.37,2013-02-06 02:55:00,
2013-02-05 22:00:00,45.5,28.4,29.74,WSW,248,0.0,0.0,51,0.00,,,0.00,WeatherDisplay:10.37,2013-02-06 03:00:00,
2013-02-05 22:05:00,45.1,28.1,29.74,WSW,248,0.0,0.0,51,0.00,,,0.00,WeatherDisplay:10.37,2013-02-06 03:05:00,
2013-02-05 22:10:00,45.1,28.5,29.74,WSW,248,0.0,0.0,52,0.00,,,0.00,WeatherDisplay:10.37,2013-02-06 03:10:00,
2013-02-05 22:15:00,45.1,28.5,29.74,WSW,248,0.0,0.0,52,0.00,,,0.00,WeatherDisplay:10.37,2013-02-06 03:15:00,
2013-02-05 22:20:00,45.1,29.0,29.74,WSW,248,0.0,0.0,53,0.00,,,0.00,WeatherDisplay:10.37,2013-02-06 03:20:00,
2013-02-05 22:25:00,44.8,29.1,29.74,WSW,248,0.0,0.0,54,0.00,,,0.00,WeatherDisplay:10.37,2013-02-06 03:25:00,
2013-02-05 22:30:00,44.6,29.0,29.74,WSW,248,0.0,0.0,54,0.00,,,0.00,WeatherDisplay:10.37,2013-02-06 03:30:00,
2013-02-05 22:35:00,44.4,28.8,29.75,WSW,248,0.0,0.0,54,0.00,,,0.00,WeatherDisplay:10.37,2013-02-06 03:35:00,
2013-02-05 22:40:00,44.8,29.1,29.74,WNW,292,0.4,2.3,54,0.00,,,0.00,WeatherDisplay:10.37,2013-02-06 03:40:00,
2013-02-05 22:45:00,45.1,29.5,29.73,NW,315,1.9,6.9,54,0.00,,,0.00,WeatherDisplay:10.37,2013-02-06 03:45:00,
2013-02-05 22:50:00,45.5,29.8,29.73,WNW,292,0.6,3.5,54,0.00,,,0.00,WeatherDisplay:10.37,2013-02-06 03:50:00,
2013-02-05 22:55:00,45.7,29.5,29.74,SSW,202,0.9,2.7,53,0.00,,,0.00,WeatherDisplay:10.37,2013-02-06 03:55:00,
2013-02-05 23:00:00,46.0,29.8,29.74,NW,315,0.7,1.1,53,0.00,,,0.00,WeatherDisplay:10.37,2013-02-06 04:00:00,
2013-02-05 23:05:00,46.2,29.5,29.74,SSW,202,0.7,3.5,52,0.00,,,0.00,WeatherDisplay:10.37,2013-02-06 04:05:00,
2013-02-05 23:10:00,46.2,30.0,29.74,WSW,248,0.0,0.0,53,0.00,,,0.00,WeatherDisplay:10.37,2013-02-06 04:10:00,
2013-02-05 23:15:00,46.0,29.8,29.74,WSW,248,0.0,0.0,53,0.00,,,0.00,WeatherDisplay:10.37,2013-02-06 04:15:00,
2013-02-05 23:20:00,45.7,29.5,29.74,WSW,248,0.0,0.0,53,0.00,,,0.00,WeatherDisplay:10.37,2013-02-06 04:20:00,
2013-02-05 23:25:00,45.3,29.6,29.74,WSW,248,0.0,0.0,54,0.00,,,0.00,WeatherDisplay:10.37,2013-02-06 04:25:00,
2013-02-05 23:30:00,45.0,29.3,29.74,WSW,248,0.0,0.0,54,0.00,,,0.00,WeatherDisplay:10.37,2013-02-06 04:30:00,
2013-02-05 23:35:00,44.8,29.1,29.74,West,270,0.0,0.0,54,0.00,,,0.00,WeatherDisplay:10.37,2013-02-06 04:35:00,
2013-02-05 23:40:00,44.6,29.4,29.73,WSW,248,0.0,0.0,55,0.00,,,0.00,WeatherDisplay:10.37,2013-02-06 04:40:00,
2013-02-05 23:45:00,44.4,29.2,29.74,South,180,0.3,1.1,55,0.00,,,0.00,WeatherDisplay:10.37,2013-02-06 04:45:00,
2013-02-05 23:50:00,44.2,29.1,29.74,South,180,0.0,0.0,55,0.00,,,0.00,WeatherDisplay:10.37,2013-02-06 04:50:00,
2013-02-05 23:55:00,43.9,28.7,29.74,South,180,0.0,0.0,55,0.00,,,0.00,WeatherDisplay:10.37,2013-02-06 04:55:00,